Millington, TN

6:21 AM CDT on April 27, 2017 (GMT -0500)
Millington Municipal

Weather History for KNQA - December, 2012

Change the Weather History Date:

Monday, December 17, 2012

  Actual Average Record
Temperature  
Mean Temperature 50 °F -  
Max Temperature 64 °F 49 °F 69 °F (2006)
Min Temperature 35 °F 32 °F 15 °F (2000)
Degree Days  
Heating Degree Days 16    
Moisture  
Dew Point 51 °F    
Average Humidity 89    
Maximum Humidity 100    
Minimum Humidity 64    
Precipitation  
Precipitation 0.00 in - - ()
Sea Level Pressure  
Sea Level Pressure 29.73 in    
Wind  
Wind Speed 6 mph (SSW)    
Max Wind Speed 17 mph    
Max Gust Speed -    
Visibility 10 miles    
Events      
Averages and records for this station are not official NWS values.
T = Trace of Precipitation, MM = Missing Value Source: NWS Daily Summary

Daily Weather History Graph

Daily Weather History Graph

Search for Another Location

Airport or City:

Trip Planner

Search our weather history database for the weather conditions in past years. The results will help you decide how hot, cold, wet, or windy it might be!

Date:

Astronomy

Dec. 17, 2012 Rise Set
Actual Time 7:02 AM CST 4:49 PM CST
Civil Twilight 6:34 AM CST 5:17 PM CST
Nautical Twilight 6:02 AM CST 5:49 PM CST
Astronomical Twilight 5:31 AM CST 6:20 PM CST
Moon 10:19 AM CST (12/17) 10:00 PM CST (12/17)
Length of Visible Light 10h 43m
Length of Day
9h 46m
Waxing Crescent, 25% of the Moon is Illuminated
Dec 17
Waxing Crescent
Dec 19
First Quarter
Dec 28
Full
Jan 4
Last Quarter
Jan 11
New

Hourly Weather History & Observations

Time (CST) Temp. Dew Point Humidity Pressure Visibility Wind Dir Wind Speed Gust Speed Precip Events Conditions
12:55 AM 60.8 °F 57.2 °F 88% 29.73 in 10.0 mi Variable 4.6 mph - N/A   Mostly Cloudy
1:15 AM 60.8 °F 57.2 °F 88% 29.73 in 10.0 mi SSW 6.9 mph - N/A   Mostly Cloudy
1:35 AM 60.8 °F 57.2 °F 88% 29.73 in 10.0 mi SSW 6.9 mph - N/A   Overcast
1:55 AM 60.8 °F 57.2 °F 88% 29.73 in 10.0 mi South 4.6 mph - N/A   Overcast
2:15 AM 60.8 °F 57.2 °F 88% 29.73 in 10.0 mi South 5.8 mph - N/A   Overcast
2:35 AM 59.0 °F 57.2 °F 94% 29.73 in 10.0 mi South 6.9 mph - N/A   Scattered Clouds
2:55 AM 59.0 °F 57.2 °F 94% 29.73 in 10.0 mi South 3.5 mph - N/A   Partly Cloudy
3:55 AM 57.2 °F 55.4 °F 94% 29.72 in 10.0 mi Variable 4.6 mph - N/A   Mostly Cloudy
4:55 AM 57.2 °F 55.4 °F 94% 29.70 in 10.0 mi SSE 5.8 mph - N/A   Overcast
5:55 AM 57.2 °F 55.4 °F 94% 29.70 in 10.0 mi SSE 4.6 mph - N/A   Mostly Cloudy
6:55 AM 57.2 °F 55.4 °F 94% 29.70 in 10.0 mi South 8.1 mph - N/A   Overcast
7:55 AM 57.2 °F 55.4 °F 94% 29.69 in 10.0 mi South 6.9 mph - N/A   Mostly Cloudy
8:55 AM 59.0 °F 55.4 °F 88% 29.71 in 10.0 mi SSW 9.2 mph - N/A   Overcast
9:55 AM 59.0 °F 55.4 °F 88% 29.72 in 10.0 mi SW 11.5 mph - N/A   Mostly Cloudy
10:55 AM 62.6 °F 53.6 °F 72% 29.69 in 10.0 mi WSW 6.9 mph - N/A   Mostly Cloudy
11:55 AM 62.6 °F 53.6 °F 72% 29.67 in 10.0 mi Variable 5.8 mph - N/A   Mostly Cloudy
12:55 PM 64.4 °F 53.6 °F 68% 29.66 in 10.0 mi SW 9.2 mph - N/A   Mostly Cloudy
1:55 PM 64.4 °F 51.8 °F 64% 29.64 in 10.0 mi WSW 12.7 mph - N/A   Scattered Clouds
2:55 PM 53.6 °F 48.2 °F 82% 29.70 in 10.0 mi WNW 15.0 mph - N/A   Mostly Cloudy
3:05 PM 51.8 °F 48.2 °F 88% 29.71 in 10.0 mi WNW 17.3 mph - N/A   Mostly Cloudy
3:55 PM 48.2 °F 42.8 °F 82% 29.74 in 10.0 mi WNW 10.4 mph - N/A   Scattered Clouds
6:55 PM 42.8 °F 41.0 °F 93% 29.78 in 10.0 mi Calm Calm - N/A   Partly Cloudy
7:55 PM 39.2 °F 39.2 °F 100% 29.80 in 10.0 mi Calm Calm - N/A   Clear
8:55 PM 39.2 °F 39.2 °F 100% 29.82 in 8.0 mi Calm Calm - N/A   Clear
9:55 PM 37.4 °F 37.4 °F 100% 29.84 in 6.0 mi Calm Calm - N/A   Clear
10:55 PM 35.6 °F 35.6 °F 100% 29.86 in 4.0 mi Calm Calm - N/A   Clear
11:55 PM 35.6 °F 35.6 °F 100% 29.86 in 10.0 mi Calm Calm - N/A   Clear